Weather History for Princeton, MN

Change the Weather History Date:

Monday, January 7, 2013

  Actual Average Record
Temperature  
Mean Temperature 26 °F -  
Max Temperature 37 °F 19 °F 51 °F (2003)
Min Temperature 15 °F 5 °F -23 °F (1997)
Degree Days  
Heating Degree Days 39    
Moisture  
Dew Point 19 °F    
Average Humidity 75    
Maximum Humidity 93    
Minimum Humidity 56    
Precipitation  
Precipitation 0.03 in - - ()
Sea Level Pressure  
Sea Level Pressure 29.87 in    
Wind  
Wind Speed 7 mph (SSW)    
Max Wind Speed 14 mph    
Max Gust Speed 23 mph    
Visibility 10 miles    
Events      
Averages and records for this station are not official NWS values.
T = Trace of Precipitation, MM = Missing Value Source: NWS Daily Summary

Daily Weather History Graph

Daily Weather History Graph

Search for Another Location

Airport:

Trip Planner

Search our weather history database for the weather conditions in past years. The results will help you decide how hot, cold, wet, or windy it might be!

Date:

Astronomy

Jan. 07, 2013 Rise Set
Actual Time 7:54 AM CST 4:47 PM CST
Civil Twilight 7:20 AM CST 5:21 PM CST
Nautical Twilight 6:43 AM CST 5:58 PM CST
Astronomical Twilight 6:07 AM CST 6:34 PM CST
Moon 3:15 AM CST (1/7) 1:01 PM CST (1/7)
Length of Visible Light 10h 01m
Length of Day
8h 53m
Waning Crescent, 22% of the Moon is Illuminated
Jan 7
Waning Crescent
Jan 11
New
Jan 18
First Quarter
Jan 26
Full
Feb 3
Last Quarter

Hourly Weather History & Observations

Time (CST) Temp. Windchill Dew Point Humidity Pressure Visibility Wind Dir Wind Speed Gust Speed Precip Events Conditions
12:11 AM 17.6 °F 5.0 °F 12.2 °F 79% 29.92 in 10.0 mi SSE 11.5 mph 16.1 mph N/A   Clear
12:31 AM 17.6 °F 4.3 °F 12.2 °F 79% 29.91 in 10.0 mi SSE 12.7 mph - N/A   Clear
12:52 AM 17.6 °F 6.4 °F 12.2 °F 79% 29.90 in 10.0 mi SSE 9.2 mph - N/A   Clear
1:11 AM 17.6 °F 7.3 °F 12.2 °F 79% 29.89 in 10.0 mi SE 8.1 mph - N/A   Clear
1:31 AM 17.6 °F 7.3 °F 12.2 °F 79% 29.87 in 10.0 mi SE 8.1 mph - N/A   Clear
1:52 AM 17.6 °F 10.7 °F 12.2 °F 79% 29.88 in 10.0 mi South 4.6 mph - N/A   Clear
2:11 AM 15.8 °F 8.6 °F 12.2 °F 86% 29.87 in 10.0 mi SSE 4.6 mph - N/A   Clear
2:31 AM 15.8 °F - 12.2 °F 86% 29.86 in 10.0 mi Calm Calm - N/A   Clear
2:51 AM 15.8 °F 8.6 °F 12.2 °F 86% 29.85 in 10.0 mi SE 4.6 mph - N/A   Clear
3:11 AM 15.8 °F 6.1 °F 12.2 °F 86% 29.84 in 10.0 mi SSE 6.9 mph - N/A   Clear
3:31 AM 21.2 °F 10.9 °F 15.8 °F 80% 29.83 in 10.0 mi South 9.2 mph - N/A   Clear
3:51 AM 24.8 °F 14.6 °F 17.6 °F 74% 29.82 in 10.0 mi South 10.4 mph - N/A   Clear
4:11 AM 26.6 °F 15.2 °F 17.6 °F 69% 29.82 in 10.0 mi South 13.8 mph 23.0 mph N/A   Clear
4:51 AM 24.8 °F 14.0 °F 17.6 °F 74% 29.82 in 10.0 mi SSW 11.5 mph 17.3 mph N/A   Clear
5:11 AM 26.6 °F 16.8 °F 19.4 °F 74% 29.82 in 10.0 mi SSW 10.4 mph 16.1 mph N/A   Clear
5:31 AM 24.8 °F 13.4 °F 17.6 °F 74% 29.82 in 10.0 mi SSW 12.7 mph - N/A   Clear
5:51 AM 24.8 °F 15.3 °F 19.4 °F 80% 29.83 in 10.0 mi SSW 9.2 mph 16.1 mph N/A   Clear
6:11 AM 24.8 °F 15.3 °F 19.4 °F 80% 29.82 in 10.0 mi South 9.2 mph - N/A   Clear
6:31 AM 24.8 °F 16.1 °F 19.4 °F 80% 29.84 in 10.0 mi SW 8.1 mph - N/A   Clear
6:51 AM 24.8 °F 16.9 °F 17.6 °F 74% 29.84 in 10.0 mi SSW 6.9 mph - N/A   Clear
7:11 AM 24.8 °F 16.1 °F 17.6 °F 74% 29.84 in 10.0 mi SSW 8.1 mph - N/A   Clear
7:32 AM 24.8 °F 15.3 °F 19.4 °F 80% 29.82 in 10.0 mi South 9.2 mph - N/A   Clear
7:51 AM 24.8 °F 16.1 °F 19.4 °F 80% 29.82 in 10.0 mi South 8.1 mph - N/A   Clear
8:11 AM 24.8 °F 14.6 °F 19.4 °F 80% 29.81 in 10.0 mi South 10.4 mph - N/A   Clear
8:32 AM 24.8 °F 15.3 °F 19.4 °F 80% 29.82 in 10.0 mi South 9.2 mph - N/A   Clear
8:51 AM 24.8 °F 15.3 °F 19.4 °F 80% 29.83 in 10.0 mi SSW 9.2 mph - N/A   Clear
9:11 AM 26.6 °F 20.0 °F 19.4 °F 74% 29.85 in 10.0 mi SSW 5.8 mph - N/A   Scattered Clouds
9:32 AM 26.6 °F 19.1 °F 21.2 °F 80% 29.85 in 10.0 mi SSW 6.9 mph - N/A   Scattered Clouds
9:51 AM 26.6 °F 20.0 °F 21.2 °F 80% 29.86 in 10.0 mi SSW 5.8 mph - N/A   Clear
10:11 AM 28.4 °F 21.2 °F 21.2 °F 74% 29.86 in 10.0 mi South 6.9 mph - N/A   Clear
10:32 AM 28.4 °F 22.2 °F 21.2 °F 74% 29.87 in 10.0 mi SSW 5.8 mph - N/A   Clear
10:51 AM 28.4 °F 22.2 °F 21.2 °F 74% 29.87 in 10.0 mi SSW 5.8 mph - N/A   Clear
11:31 AM 30.2 °F 21.9 °F 21.2 °F 69% 29.86 in 10.0 mi SSW 9.2 mph - N/A   Clear
11:51 AM 32.0 °F 25.6 °F 21.2 °F 64% 29.85 in 10.0 mi SSW 6.9 mph - N/A   Clear
12:12 PM 33.8 °F 28.6 °F 21.2 °F 60% 29.84 in 10.0 mi SSW 5.8 mph - N/A   Clear
12:51 PM 35.6 °F 28.6 °F 21.2 °F 56% 29.84 in 10.0 mi SW 9.2 mph - N/A   Clear
1:12 PM 35.6 °F 29.9 °F 21.2 °F 56% 29.84 in 10.0 mi SW 6.9 mph - N/A   Clear
1:51 PM 37.4 °F 32.1 °F 23.0 °F 56% 29.85 in 10.0 mi SSW 6.9 mph - 0.01 in   Clear
2:12 PM 37.4 °F 32.1 °F 23.0 °F 56% 29.85 in 10.0 mi SSW 6.9 mph - N/A   Clear
2:31 PM 37.4 °F 33.8 °F 23.0 °F 56% 29.85 in 10.0 mi SW 4.6 mph - 0.01 in   Clear
2:52 PM 37.4 °F 32.8 °F 23.0 °F 56% 29.86 in 10.0 mi SSW 5.8 mph - 0.02 in   Clear
3:11 PM 35.6 °F 29.2 °F 23.0 °F 60% 29.86 in 10.0 mi SSW 8.1 mph - N/A   Clear
3:31 PM 35.6 °F 30.7 °F 23.0 °F 60% 29.87 in 10.0 mi SSW 5.8 mph - N/A   Clear
3:51 PM 35.6 °F 30.7 °F 23.0 °F 60% 29.88 in 10.0 mi SSW 5.8 mph - N/A   Clear
4:11 PM 33.8 °F 29.6 °F 23.0 °F 65% 29.88 in 10.0 mi SSW 4.6 mph - N/A   Clear
4:51 PM 33.8 °F 29.6 °F 23.0 °F 65% 29.88 in 10.0 mi SSW 4.6 mph - N/A   Clear
5:11 PM 33.8 °F 27.7 °F 23.0 °F 65% 29.89 in 10.0 mi South 6.9 mph - N/A   Clear
5:31 PM 32.0 °F 26.4 °F 23.0 °F 69% 29.89 in 10.0 mi South 5.8 mph - N/A   Clear
5:51 PM 30.2 °F 26.7 °F 21.2 °F 69% 29.90 in 10.0 mi SSW 3.5 mph - N/A   Clear
6:11 PM 30.2 °F 25.4 °F 21.2 °F 69% 29.91 in 10.0 mi SSW 4.6 mph - N/A   Clear
6:31 PM 28.4 °F 23.3 °F 21.2 °F 74% 29.91 in 10.0 mi SSW 4.6 mph - N/A   Clear
6:51 PM 28.4 °F 23.3 °F 21.2 °F 74% 29.91 in 10.0 mi SSW 4.6 mph - N/A   Clear
7:11 PM 28.4 °F 23.3 °F 21.2 °F 74% 29.91 in 10.0 mi SSW 4.6 mph - N/A   Clear
7:31 PM 26.6 °F 21.2 °F 21.2 °F 80% 29.91 in 10.0 mi SSW 4.6 mph - N/A   Clear
7:51 PM 26.6 °F - 21.2 °F 80% 29.91 in 10.0 mi Calm Calm - N/A   Clear
8:11 PM 26.6 °F 22.6 °F 21.2 °F 80% 29.90 in 10.0 mi South 3.5 mph - N/A   Clear
8:31 PM 26.6 °F 21.2 °F 21.2 °F 80% 29.90 in 10.0 mi South 4.6 mph - N/A   Clear
8:51 PM 26.6 °F - 21.2 °F 80% 29.91 in 10.0 mi Calm Calm - N/A   Clear
9:11 PM 26.6 °F 22.6 °F 21.2 °F 80% 29.91 in 10.0 mi SSW 3.5 mph - N/A   Clear
9:32 PM 26.6 °F 22.6 °F 21.2 °F 80% 29.91 in 10.0 mi SSW 3.5 mph - N/A   Clear
9:51 PM 24.8 °F - 19.4 °F 80% 29.92 in 10.0 mi Calm Calm - N/A   Clear
10:11 PM 24.8 °F - 19.4 °F 80% 29.92 in 10.0 mi Calm Calm - N/A   Clear
10:32 PM 21.2 °F - 19.4 °F 93% 29.93 in 10.0 mi Calm Calm - N/A   Clear
10:51 PM 19.4 °F - 17.6 °F 93% 29.93 in 7.0 mi Calm Calm - N/A   Clear
11:11 PM 17.6 °F - 15.8 °F 93% 29.94 in 3.0 mi Calm Calm - N/A   Clear
11:32 PM 15.8 °F - 12.2 °F 86% 29.94 in 1.5 mi Calm Calm - N/A   Clear
11:51 PM 17.6 °F - 15.8 °F 93% 29.94 in 1.5 mi Calm Calm - N/A   Clear